Waarnemingen

Advertentie
Mijn weer
Topcliffe, Groot Brittannië (3265): temperatuur & dauwpunt: 17.05.2018 21:00:00 - 23.05.2018 21:00:00 (BST)Topcliffe, Groot Brittannië (3265): windsnelheid & windstoten: 17.05.2018 21:00:00 - 23.05.2018 21:00:00 (BST)Topcliffe, Groot Brittannië (3265): windrichting: 17.05.2018 21:00:00 - 23.05.2018 21:00:00 (BST)Topcliffe, Groot Brittannië (3265): luchtdruk: 17.05.2018 21:00:00 - 23.05.2018 21:00:00 (BST)Topcliffe, Groot Brittannië (3265): zicht: 17.05.2018 21:00:00 - 23.05.2018 21:00:00 (BST)Topcliffe, Groot Brittannië (3265): neerslag: 17.05.2018 21:00:00 - 23.05.2018 21:00:00 (BST)
Datum & Tijd tt [°C] td [°C] ff [km/u] ff [kn] fx [km/u] fx [kn] dd ppp [hPa] vv [km] rr [mm]
23.05.2018 21:00:00 10,0 7,4 15 8 - - NNW 1028,0 22 0,0
23.05.2018 20:00:00 12,5 8,1 16 9 - - NNW 1027,5 40 0,0
23.05.2018 19:00:00 14,0 8,5 18 10 - - N 1027,2 40 0,0
23.05.2018 18:00:00 14,4 8,6 22 12 - - N 1026,9 40 0,0
23.05.2018 17:00:00 15,2 8,8 22 12 - - N 1027,0 10 0,0
23.05.2018 16:00:00 16,2 9,9 24 13 - - N 1027,2 10 0,0
23.05.2018 15:00:00 16,6 10,5 21 11 - - NNW 1027,5 10 0,0
23.05.2018 14:00:00 15,7 9,5 24 13 - - NNW 1027,7 21 0,0
23.05.2018 13:00:00 15,6 10,5 16 9 - - N 1027,8 10 0,0
23.05.2018 12:00:00 13,9 9,2 16 9 - - N 1028,0 10 0,0
23.05.2018 11:00:00 12,2 8,1 18 10 - - N 1028,1 10 0,0
23.05.2018 10:00:00 11,9 8,1 15 8 - - N 1028,0 10 0,0
23.05.2018 09:00:00 11,0 7,9 15 8 - - NNO 1027,7 10 0,0
23.05.2018 08:00:00 10,2 7,6 18 10 - - N 1027,4 10 0,0
23.05.2018 07:00:00 10,0 7,4 22 12 - - N 1027,0 19 0,0
23.05.2018 06:00:00 9,8 7,2 24 13 - - N 1026,5 15 0,0
23.05.2018 05:00:00 9,7 7,1 18 10 - - NNW 1026,1 15 0,0
23.05.2018 04:00:00 9,8 7,2 16 9 - - N 1025,9 16 0,0
23.05.2018 03:00:00 9,8 7,2 22 12 - - NNW 1025,7 14 0,0
23.05.2018 02:00:00 9,8 7,1 21 11 - - N 1025,5 19 0,0
23.05.2018 01:00:00 9,9 7,0 21 11 - - N 1025,7 18 0,0
23.05.2018 00:00:00 10,1 7,2 18 10 - - N 1025,8 16 0,0
22.05.2018 23:00:00 10,2 7,3 18 10 - - N 1025,4 15 0,0
22.05.2018 22:00:00 10,3 7,1 22 12 - - N 1024,9 17 0,0
22.05.2018 21:00:00 10,3 7,1 31 17 50 27 N 1023,9 22 0,0
22.05.2018 20:00:00 10,6 7,3 34 18 46 25 N 1023,6 17 0,0
22.05.2018 19:00:00 11,2 7,6 29 16 46 25 N 1023,4 18 0,0
22.05.2018 18:00:00 12,0 7,9 29 16 - - N 1023,2 35 0,0
22.05.2018 17:00:00 13,5 8,4 26 14 - - N 1022,9 45 0,0
22.05.2018 16:00:00 13,0 8,0 29 16 46 25 N 1022,8 10 0,0
22.05.2018 15:00:00 12,6 8,3 29 16 - - N 1022,7 10 0,0
22.05.2018 14:00:00 12,9 8,9 34 18 46 25 N 1022,5 10 0,0
22.05.2018 13:00:00 12,5 8,4 29 16 - - N 1022,3 10 0,0
22.05.2018 12:00:00 12,1 8,8 31 17 50 27 N 1021,9 10 0,0
22.05.2018 11:00:00 11,8 8,8 31 17 52 28 N 1021,9 10 0,0
22.05.2018 10:00:00 10,7 8,5 31 17 50 27 N 1021,9 17 0,0
22.05.2018 09:00:00 10,1 8,4 29 16 52 28 N 1021,8 7 0,0
22.05.2018 08:00:00 9,8 8,5 29 16 46 25 N 1021,0 8 0,0
22.05.2018 07:00:00 9,3 8,3 29 16 46 25 N 1020,5 9 0,0
22.05.2018 06:00:00 9,2 8,0 31 17 48 26 N 1020,2 9 0,0
22.05.2018 05:00:00 9,2 8,2 26 14 50 27 N 1020,1 7 0,0
22.05.2018 04:00:00 9,6 8,6 28 15 - - N 1019,8 5 0,0
22.05.2018 03:00:00 10,8 9,6 28 15 - - N 1019,2 8 0,0
22.05.2018 02:00:00 10,0 9,0 18 10 - - NW 1018,7 7 0,0
22.05.2018 01:00:00 10,2 8,6 13 7 - - NW 1018,3 8 0,0
22.05.2018 00:00:00 11,2 9,1 13 7 - - NNW 1018,2 10 0,0
21.05.2018 23:00:00 12,1 9,2 13 7 - - NNW 1018,3 13 0,0
21.05.2018 22:00:00 14,3 9,9 11 6 - - W 1018,3 16 0,0
21.05.2018 21:00:00 15,2 6,8 5 3 - - O 1017,4 45 0,0
21.05.2018 20:00:00 17,9 6,6 13 7 - - O 1017,2 50 0,0
21.05.2018 19:00:00 20,5 6,3 15 8 - - O 1017,0 25 0,0
21.05.2018 18:00:00 21,4 7,3 18 10 - - O 1017,0 45 0,0
21.05.2018 17:00:00 22,1 10,8 16 9 - - O 1017,0 22 0,0
21.05.2018 16:00:00 22,8 11,9 11 6 - - O 1017,2 10 0,0
21.05.2018 15:00:00 22,4 12,2 8 4 - - ZO 1017,6 10 0,0
21.05.2018 14:00:00 21,6 10,2 13 7 - - OZO 1018,1 10 0,0
21.05.2018 13:00:00 20,4 10,1 8 4 - - ZO 1018,3 30 0,0
21.05.2018 12:00:00 18,8 9,4 5 3 - - ZO 1018,8 10 0,0
21.05.2018 11:00:00 17,9 10,7 5 3 - - OZO 1019,2 10 0,0
21.05.2018 10:00:00 15,2 11,0 8 4 - - Z 1019,6 10 0,0
21.05.2018 09:00:00 13,4 10,6 8 4 - - ZZO 1019,9 10 0,0
21.05.2018 08:00:00 10,7 8,9 5 3 - - Z 1020,0 10 0,0
21.05.2018 07:00:00 8,4 8,2 4 2 - - Z 1020,1 5 0,0
21.05.2018 06:00:00 6,8 6,5 5 3 - - ZW 1020,0 3,4 0,0
21.05.2018 05:00:00 6,6 6,2 5 3 - - Z 1019,9 0,9 0,0
21.05.2018 04:00:00 6,6 5,9 8 4 - - Z 1019,9 3,7 0,0
21.05.2018 03:00:00 7,3 6,9 8 4 - - ZZO 1019,9 4,9 0,0
21.05.2018 02:00:00 7,7 7,2 9 5 - - ZO 1020,6 4,1 0,0
21.05.2018 01:00:00 8,1 7,2 13 7 - - OZO 1020,9 5 0,0
21.05.2018 00:00:00 9,5 8,1 15 8 - - ZO 1021,0 8 0,0
20.05.2018 23:00:00 10,9 8,7 15 8 - - ZO 1020,7 16 0,0
20.05.2018 22:00:00 12,6 9,9 16 9 - - OZO 1020,3 17 0,0
20.05.2018 21:00:00 15,0 11,2 21 11 - - OZO 1019,6 23 0,0
20.05.2018 20:00:00 17,7 12,4 18 10 - - OZO 1019,2 23 0,0
20.05.2018 19:00:00 20,5 10,6 24 13 - - ZO 1018,8 19 0,0
20.05.2018 18:00:00 21,8 10,8 26 14 - - ZO 1018,9 26 0,0
20.05.2018 17:00:00 22,2 10,7 21 11 - - ZO 1019,2 22 0,0
20.05.2018 16:00:00 22,4 11,9 18 10 - - ZZO 1019,7 14 0,0
20.05.2018 15:00:00 21,8 10,1 21 11 - - ZZO 1020,3 21 0,0
20.05.2018 14:00:00 21,4 10,5 15 8 - - Z 1020,8 28 0,0
20.05.2018 13:00:00 20,5 10,5 16 9 - - ZO 1021,3 24 0,0
20.05.2018 12:00:00 20,2 11,4 16 9 - - ZZO 1021,6 18 0,0
20.05.2018 11:00:00 17,9 10,5 15 8 - - ZO 1022,0 26 0,0
20.05.2018 10:00:00 15,9 10,9 16 9 - - ZO 1022,4 17 0,0
20.05.2018 09:00:00 13,1 9,1 15 8 - - ZZO 1022,6 17 0,0
20.05.2018 08:00:00 11,3 8,6 13 7 - - ZO 1022,6 15 0,0
20.05.2018 07:00:00 9,7 8,4 9 5 - - ZO 1022,6 10 0,0
20.05.2018 06:00:00 7,1 6,1 11 6 - - ZO 1022,3 15 0,0
20.05.2018 05:00:00 5,3 3,6 13 7 - - ZO 1022,1 30 0,0
20.05.2018 04:00:00 6,9 3,9 9 5 - - Z 1022,3 40 0,0
20.05.2018 03:00:00 8,1 3,9 11 6 - - ZO 1022,2 50 0,0
20.05.2018 02:00:00 8,9 5,1 15 8 - - ZO 1022,1 40 0,0
20.05.2018 01:00:00 9,9 6,0 21 11 - - OZO 1022,2 45 0,0
20.05.2018 00:00:00 10,4 6,4 16 9 - - OZO 1022,2 45 0,0
19.05.2018 23:00:00 11,3 6,2 16 9 - - ZO 1022,2 50 0,0
19.05.2018 22:00:00 12,3 6,1 16 9 - - OZO 1022,1 50 0,0
19.05.2018 21:00:00 14,7 7,4 18 10 - - OZO 1021,7 40 0,0
19.05.2018 20:00:00 17,5 8,5 21 11 - - ZZO 1021,4 35 0,0
19.05.2018 19:00:00 19,1 8,6 22 12 - - ZZO 1021,2 21 0,0
19.05.2018 18:00:00 19,8 9,5 21 11 - - ZZO 1021,5 23 0,0
19.05.2018 17:00:00 20,1 8,8 18 10 - - ZZO 1021,7 27 0,0
19.05.2018 16:00:00 20,1 8,7 16 9 - - Z 1022,2 30 0,0
19.05.2018 15:00:00 20,2 9,6 18 10 - - Z 1022,7 14 0,0
19.05.2018 14:00:00 19,4 9,2 16 9 - - ZZO 1023,1 19 0,0
19.05.2018 13:00:00 19,0 9,0 16 9 - - ZZO 1023,5 35 0,0
19.05.2018 12:00:00 17,7 8,6 13 7 - - ZZO 1024,0 22 0,0
19.05.2018 11:00:00 16,2 10,5 11 6 - - ZZO 1024,4 14 0,0
19.05.2018 10:00:00 14,1 9,9 11 6 - - ZZO 1024,6 16 0,0
19.05.2018 09:00:00 11,6 7,8 8 4 - - ZZO 1025,0 14 0,0
19.05.2018 08:00:00 9,4 6,7 5 3 - - ZZO 1025,0 12 0,0
19.05.2018 07:00:00 7,0 6,6 2 1 - - NW 1024,8 14 0,0
19.05.2018 06:00:00 3,4 2,8 2 1 - - ZO 1024,6 10 0,0
19.05.2018 05:00:00 4,0 3,2 4 2 - - ZW 1024,3 9 0,0
19.05.2018 04:00:00 5,4 4,4 5 3 - - Z 1024,4 16 0,0
19.05.2018 03:00:00 5,5 4,5 8 4 - - ZO 1024,8 18 0,0
19.05.2018 02:00:00 6,1 5,2 9 5 - - ZO 1025,0 20 0,0
19.05.2018 01:00:00 6,3 5,2 9 5 - - OZO 1025,2 22 0,0
19.05.2018 00:00:00 6,8 5,5 9 5 - - ZO 1025,2 13 0,0
18.05.2018 23:00:00 9,1 7,1 4 2 - - Z 1025,3 18 0,0
18.05.2018 22:00:00 9,4 7,3 8 4 - - ZZO 1025,0 18 0,0
18.05.2018 21:00:00 11,3 8,2 11 6 - - ZO 1024,5 19 0,0
18.05.2018 20:00:00 13,8 9,0 11 6 - - OZO 1024,3 21 0,0
18.05.2018 19:00:00 15,9 8,8 16 9 - - O 1024,1 27 0,0
18.05.2018 18:00:00 17,3 4,5 2 1 - - NNW 1024,1 35 0,0
18.05.2018 17:00:00 16,7 5,3 5 3 - - NW 1024,3 45 0,0
18.05.2018 16:00:00 16,6 5,7 11 6 - - NW 1024,5 45 0,0
18.05.2018 15:00:00 16,2 5,6 9 5 - - N 1024,7 10 0,0
18.05.2018 14:00:00 16,4 4,8 9 5 - - N 1024,8 10 0,0
18.05.2018 13:00:00 16,0 5,2 15 8 - - N 1025,1 35 0,0
18.05.2018 12:00:00 14,6 3,8 4 2 - - ZZW 1025,6 10 0,0
18.05.2018 11:00:00 13,1 6,1 4 2 - - ZZO 1026,1 10 0,0
18.05.2018 10:00:00 11,0 6,5 4 2 - - ZZO 1026,4 10 0,0
18.05.2018 09:00:00 9,1 6,2 5 3 - - ZO 1026,8 10 0,0
18.05.2018 08:00:00 6,4 5,1 4 2 - - OZO 1027,1 25 0,0
18.05.2018 07:00:00 3,8 3,6 2 1 - - N 1026,9 18 0,0
18.05.2018 06:00:00 0,5 0,2 2 1 - - Z 1027,1 0,7 0,0
18.05.2018 05:00:00 0,5 0,3 2 1 - - NNO 1027,1 4,3 0,0
18.05.2018 04:00:00 0,3 -0,1 2 1 - - W 1027,5 0,3 0,0
18.05.2018 03:00:00 0,9 0,4 0 0 - - N 1027,6 0,4 0,0
18.05.2018 02:00:00 2,4 2,0 2 1 - - NO 1027,8 19 0,0
18.05.2018 01:00:00 2,4 1,1 4 2 - - WNW 1028,2 15 0,0
18.05.2018 00:00:00 5,1 3,5 5 3 - - WNW 1028,3 19 0,0
17.05.2018 23:00:00 5,0 2,7 4 2 - - ONO 1028,6 30 0,0
17.05.2018 22:00:00 6,5 3,0 9 5 - - NNO 1028,6 40 0,0
17.05.2018 21:00:00 9,4 3,5 9 5 - - N 1028,4 50 0,0

tt = temperatuur
td = dauwpunt
ff = windsnelheid
fx = windstoten
dd = windrichting
ppp = luchtdruk
vv = zicht
rr = neerslag

Weerstations in de omgeving